• în Republica Moldova
  • Lista ţărilor
  • Pe 7 zile
  • Temperatura apei
  • Hartă satelitară
  • Meteo pe hartă
  • Widget-uri
  • user-avatar
    Intrare

    Meteo pe oră la Durres

    Astăzi, 17 Ianuarie, Miercuri

    Timp Temperatura Precipitaţii Vânt Presiune Umiditate
    00:00 +9°C° 0,2 mm 6 m/s 758 mmHg 90%
    01:00 +9°C° 0 mm 7 m/s 757 mmHg 91%
    02:00 +9°C° 0,3 mm 7 m/s 756 mmHg 91%
    03:00 +9°C° 0,3 mm 7 m/s 756 mmHg 90%
    04:00 +9°C° 0,3 mm 7 m/s 755 mmHg 90%
    05:00 +9°C° 0,5 mm 8 m/s 755 mmHg 90%
    06:00 +8°C° 0,5 mm 9 m/s 754 mmHg 89%
    07:00 +8°C° 0 mm 9 m/s 753 mmHg 89%
    08:00 +9°C° 0,4 mm 10 m/s 752 mmHg 87%
    09:00 +9°C° 0,4 mm 11 m/s 752 mmHg 86%
    10:00 +9°C° 0,4 mm 12 m/s 751 mmHg 84%
    11:00 +10°C° 1 mm 13 m/s 750 mmHg 84%
    12:00 +12°C° 1 mm 13 m/s 749 mmHg 83%
    13:00 +13°C° 0 mm 11 m/s 748 mmHg 80%
    14:00 +13°C° 1,3 mm 12 m/s 748 mmHg 80%
    15:00 +13°C° 1,3 mm 12 m/s 747 mmHg 80%
    16:00 +12°C° 1,3 mm 13 m/s 746 mmHg 80%
    17:00 +10°C° 1,2 mm 12 m/s 747 mmHg 83%
    18:00 +9°C° 1,2 mm 12 m/s 747 mmHg 85%
    19:00 +9°C° 1,2 mm 12 m/s 747 mmHg 88%
    20:00 +8°C° 0,3 mm 12 m/s 748 mmHg 86%
    21:00 +8°C° 0,3 mm 13 m/s 749 mmHg 83%
    22:00 +8°C° 0,3 mm 13 m/s 750 mmHg 81%
    23:00 +7°C° 0,1 mm 13 m/s 751 mmHg 80%

    Mâine, 18 Ianuarie, Joi

    Timp Temperatura Precipitaţii Vânt Presiune Umiditate
    00:00 +5°C° 0,1 mm 13 m/s 752 mmHg 79%
    01:00 +4°C° 0,1 mm 13 m/s 754 mmHg 77%
    02:00 +3°C° 0 mm 12 m/s 755 mmHg 77%
    03:00 +2°C° 0 mm 12 m/s 756 mmHg 77%
    04:00 +2°C° 0 mm 12 m/s 757 mmHg 77%
    05:00 0°C° 0 mm 12 m/s 758 mmHg 75%
    06:00 +1°C° 0 mm 11 m/s 759 mmHg 73%
    07:00 +1°C° 0 mm 11 m/s 760 mmHg 71%
    08:00 +2°C° 0 mm 10 m/s 761 mmHg 62%
    09:00 +3°C° 0 mm 10 m/s 761 mmHg 53%
    10:00 +6°C° 0 mm 9 m/s 762 mmHg 45%
    11:00 +6°C° 0 mm 9 m/s 762 mmHg 43%
    12:00 +7°C° 0 mm 8 m/s 762 mmHg 41%
    13:00 +9°C° 0 mm 8 m/s 763 mmHg 39%
    14:00 +8°C° 0 mm 7 m/s 763 mmHg 44%
    15:00 +8°C° 0 mm 6 m/s 763 mmHg 48%
    16:00 +7°C° 0 mm 5 m/s 763 mmHg 52%
    17:00 +6°C° 0 mm 4 m/s 763 mmHg 53%
    18:00 +5°C° 0 mm 3 m/s 763 mmHg 54%
    19:00 +6°C° 0 mm 2 m/s 763 mmHg 54%
    20:00 +5°C° 0 mm 2 m/s 763 mmHg 55%
    21:00 +4°C° 0 mm 3 m/s 763 mmHg 55%
    22:00 +4°C° 0 mm 4 m/s 763 mmHg 56%
    23:00 +4°C° 0 mm 4 m/s 763 mmHg 57%

    Poimâine, 19 Ianuarie, Vineri

    Timp Temperatura Precipitaţii Vânt Presiune Umiditate
    00:00 +3°C° 0 mm 5 m/s 763 mmHg 58%
    01:00 +3°C° 0 mm 5 m/s 763 mmHg 59%
    02:00 +3°C° 0 mm 6 m/s 763 mmHg 61%
    03:00 +3°C° 0 mm 6 m/s 762 mmHg 63%
    04:00 +3°C° 0 mm 6 m/s 762 mmHg 65%
    05:00 +3°C° 0 mm 6 m/s 762 mmHg 63%
    06:00 +3°C° 0 mm 6 m/s 762 mmHg 61%
    07:00 +3°C° 0 mm 6 m/s 762 mmHg 59%
    08:00 +5°C° 0 mm 6 m/s 762 mmHg 58%
    09:00 +8°C° 0 mm 6 m/s 762 mmHg 58%
    10:00 +9°C° 0 mm 6 m/s 762 mmHg 57%
    11:00 +9°C° 0 mm 6 m/s 761 mmHg 59%
    12:00 +10°C° 0 mm 6 m/s 761 mmHg 61%
    13:00 +10°C° 0 mm 6 m/s 760 mmHg 63%
    14:00 +10°C° 0 mm 7 m/s 760 mmHg 66%
    15:00 +10°C° 0 mm 7 m/s 760 mmHg 69%
    16:00 +9°C° 0 mm 7 m/s 759 mmHg 71%
    17:00 +9°C° 0 mm 7 m/s 759 mmHg 74%
    18:00 +8°C° 0 mm 7 m/s 759 mmHg 76%
    19:00 +7°C° 0 mm 8 m/s 759 mmHg 78%
    20:00 +6°C° 0 mm 8 m/s 759 mmHg 79%
    21:00 +6°C° 0 mm 8 m/s 759 mmHg 80%
    22:00 +6°C° 0 mm 8 m/s 759 mmHg 81%
    23:00 +6°C° 0 mm 8 m/s 759 mmHg 81%

    20 Ianuarie, Sâmbătă

    Timp Temperatura Precipitaţii Vânt Presiune Umiditate
    00:00 +6°C° 0 mm 8 m/s 758 mmHg 80%
    01:00 +6°C° 0 mm 8 m/s 758 mmHg 80%
    02:00 +6°C° 0,3 mm 8 m/s 758 mmHg 80%
    03:00 +7°C° 0,3 mm 8 m/s 758 mmHg 81%
    04:00 +7°C° 0,3 mm 8 m/s 757 mmHg 81%
    05:00 +7°C° 0,3 mm 8 m/s 757 mmHg 83%
    06:00 +7°C° 0,3 mm 8 m/s 757 mmHg 84%
    07:00 +8°C° 0,3 mm 7 m/s 757 mmHg 85%
    08:00 +9°C° 0,4 mm 7 m/s 757 mmHg 85%
    09:00 +9°C° 0,4 mm 7 m/s 757 mmHg 86%
    10:00 +10°C° 0,4 mm 7 m/s 757 mmHg 86%
    11:00 +11°C° 0,7 mm 7 m/s 756 mmHg 83%
    12:00 +11°C° 0,7 mm 7 m/s 756 mmHg 81%
    13:00 +12°C° 0,7 mm 7 m/s 755 mmHg 78%
    14:00 +12°C° 0,9 mm 7 m/s 755 mmHg 81%
    15:00 +11°C° 0,9 mm 7 m/s 755 mmHg 83%
    16:00 +11°C° 0,9 mm 6 m/s 755 mmHg 85%
    17:00 +10°C° 0,9 mm 6 m/s 755 mmHg 87%
    18:00 +10°C° 0,9 mm 6 m/s 755 mmHg 90%
    19:00 +9°C° 0,9 mm 5 m/s 756 mmHg 92%
    20:00 +10°C° 0,3 mm 4 m/s 756 mmHg 92%
    21:00 +8°C° 0,3 mm 4 m/s 756 mmHg 92%
    22:00 +9°C° 0,3 mm 3 m/s 757 mmHg 92%
    23:00 +9°C° 0 mm 3 m/s 757 mmHg 92%

    21 Ianuarie, Duminică

    Timp Temperatura Precipitaţii Vânt Presiune Umiditate
    00:00 +8°C° 0 mm 3 m/s 757 mmHg 92%
    01:00 +8°C° 0 mm 3 m/s 757 mmHg 92%
    02:00 +8°C° 0 mm 3 m/s 757 mmHg 92%
    03:00 +8°C° 0 mm 3 m/s 757 mmHg 91%
    04:00 +8°C° 0 mm 3 m/s 757 mmHg 91%
    05:00 +8°C° 0 mm 3 m/s 756 mmHg 88%
    06:00 +8°C° 0 mm 3 m/s 756 mmHg 86%
    07:00 +7°C° 0 mm 3 m/s 756 mmHg 83%
    08:00 +9°C° 0,2 mm 2 m/s 756 mmHg 76%
    09:00 +10°C° 0,2 mm 2 m/s 756 mmHg 69%
    10:00 +12°C° 0,2 mm 2 m/s 756 mmHg 61%
    11:00 +11°C° 0,2 mm 3 m/s 755 mmHg 58%
    12:00 +12°C° 0,2 mm 4 m/s 755 mmHg 54%
    13:00 +12°C° 0,2 mm 4 m/s 755 mmHg 51%
    14:00 +10°C° 0,2 mm 5 m/s 755 mmHg 57%
    15:00 +10°C° 0,2 mm 7 m/s 755 mmHg 62%
    16:00 +9°C° 0,2 mm 8 m/s 755 mmHg 68%
    17:00 +7°C° 0 mm 8 m/s 755 mmHg 71%
    18:00 +6°C° 0 mm 8 m/s 756 mmHg 73%
    19:00 +6°C° 0 mm 8 m/s 757 mmHg 76%
    20:00 +5°C° 0 mm 8 m/s 757 mmHg 75%
    21:00 +5°C° 0 mm 9 m/s 758 mmHg 74%
    22:00 +3°C° 0 mm 10 m/s 759 mmHg 73%
    23:00 +2°C° 0 mm 9 m/s 759 mmHg 72%

    22 Ianuarie, Luni

    Timp Temperatura Precipitaţii Vânt Presiune Umiditate
    00:00 +2°C° 0 mm 9 m/s 759 mmHg 70%
    01:00 +1°C° 0 mm 8 m/s 760 mmHg 68%
    02:00 +1°C° 0 mm 8 m/s 760 mmHg 68%
    03:00 0°C° 0 mm 7 m/s 761 mmHg 69%
    04:00 0°C° 0 mm 7 m/s 761 mmHg 69%
    05:00 0°C° 0 mm 7 m/s 762 mmHg 68%
    06:00 0°C° 0 mm 7 m/s 762 mmHg 68%
    07:00 0°C° 0 mm 7 m/s 763 mmHg 67%
    08:00 +2°C° 0 mm 6 m/s 763 mmHg 62%
    09:00 +3°C° 0 mm 6 m/s 764 mmHg 56%
    10:00 +5°C° 0 mm 6 m/s 764 mmHg 50%
    11:00 +7°C° 0 mm 6 m/s 764 mmHg 48%
    12:00 +7°C° 0 mm 5 m/s 764 mmHg 45%
    13:00 +8°C° 0 mm 5 m/s 764 mmHg 43%
    14:00 +8°C° 0 mm 5 m/s 764 mmHg 47%
    15:00 +7°C° 0 mm 5 m/s 764 mmHg 51%
    16:00 +7°C° 0 mm 5 m/s 765 mmHg 55%
    17:00 +6°C° 0 mm 5 m/s 765 mmHg 58%
    18:00 +5°C° 0 mm 5 m/s 766 mmHg 60%
    19:00 +3°C° 0 mm 5 m/s 766 mmHg 63%
    20:00 +3°C° 0 mm 5 m/s 766 mmHg 63%
    21:00 +2°C° 0 mm 5 m/s 767 mmHg 64%
    22:00 +2°C° 0 mm 5 m/s 767 mmHg 64%
    23:00 +3°C° 0 mm 4 m/s 767 mmHg 64%
    Arată mai mult